Location: Mentone
(34.5413°N, 85.5351°W)
Time: 22:04:33
(UTC-05:00)

S-56A Canister/Altair - Visible Passes

Search period start: 28 August 2015 00:00
Search period end: 07 September 2015 00:00
Orbit: 636 x 2499 km, 38.9° (Epoch: 26 August)

Date Brightness Start Highest point End Pass type
(mag) Time Alt. Az. Time Alt. Az. Time Alt. Az.
28 Aug 10.6 01:36:22 10° WNW 01:43:04 32° WNW 01:43:04 32° WNW visible
28 Aug 10.0 20:48:07 10° WSW 21:02:27 81° NNW 21:16:52 12° ENE visible
28 Aug 9.9 22:55:19 10° WNW 23:10:39 77° N 23:14:15 59° ENE visible
29 Aug 10.4 01:02:57 10° WNW 01:11:38 41° WNW 01:11:38 41° WNW visible
29 Aug 10.0 20:15:16 10° WSW 20:29:05 83° NNW 20:44:18 10° ENE visible
29 Aug 9.9 22:22:08 10° W 22:37:17 76° N 22:42:51 47° E visible
30 Aug 10.1 00:29:36 10° WNW 00:40:15 53° W 00:40:15 53° W visible
30 Aug 10.0 19:42:32 10° WSW 19:55:46 86° NNW 20:11:09 10° ENE visible
30 Aug 10.0 21:49:01 10° W 22:03:54 75° N 22:11:31 37° E visible
30 Aug 9.9 23:56:18 10° WNW 00:08:54 67° W 00:08:54 67° W visible
31 Aug 11.3 02:04:20 10° WNW 02:06:18 15° WNW 02:06:18 15° WNW visible
31 Aug 10.0 19:09:55 10° WSW 19:22:31 89° NNW 19:37:55 10° ENE visible
31 Aug 10.0 21:16:01 10° W 21:30:29 75° N 21:40:11 28° E visible
31 Aug 9.7 23:23:03 10° WNW 23:37:35 83° W 23:37:35 83° W visible
01 Sep 11.1 01:30:46 10° WNW 01:34:59 21° W 01:34:59 21° W visible
01 Sep 10.1 20:43:05 10° W 20:57:04 75° N 21:08:55 20° E visible
01 Sep 9.7 22:49:53 10° WNW 23:05:10 88° NNE 23:06:19 80° E visible
02 Sep 10.8 00:57:18 10° WNW 01:03:43 29° W 01:03:43 29° W visible
02 Sep 10.1 20:10:16 10° W 20:23:41 75° N 20:37:40 14° E visible
02 Sep 9.8 22:16:49 10° WNW 22:31:50 85° NNE 22:35:04 64° E visible
03 Sep 10.6 00:23:56 10° WNW 00:32:28 38° W 00:32:28 38° W visible
03 Sep 10.1 19:37:33 10° W 19:50:21 76° N 20:05:43 10° E visible
03 Sep 9.9 21:43:49 10° WNW 21:58:29 82° NNE 22:03:53 50° E visible
03 Sep 10.3 23:50:39 10° WNW 00:01:16 49° W 00:01:16 49° W visible
04 Sep 10.1 19:04:55 10° W 19:17:03 77° N 19:32:24 10° ENE visible
04 Sep 9.9 21:10:54 10° WNW 21:25:06 80° NNE 21:32:42 38° E visible
04 Sep 10.0 23:17:28 10° WNW 23:30:06 62° WSW 23:30:06 62° WSW visible
05 Sep 11.5 01:26:06 10° W 01:27:31 13° W 01:27:31 13° W visible
05 Sep 10.0 20:38:05 10° WNW 20:51:44 78° N 21:01:35 28° E visible
05 Sep 9.8 22:44:22 10° WNW 22:58:59 72° SW 22:58:59 72° SW visible
06 Sep 11.2 00:52:21 10° WNW 00:56:23 19° W 00:56:23 19° W visible
06 Sep 10.0 20:05:21 10° WNW 20:18:24 76° N 20:30:30 20° E visible
06 Sep 9.7 22:11:22 10° WNW 22:26:00 77° SSW 22:27:55 70° SSE visible
